EW9174 Weather Reports


Display with metric or nautical units.
time (UTC)temp
F
wind
direction
speed
MPH
gust
MPH
rain 1hr
in
rain 24hr
in
rain mn
in
humidity
%
barometer
mb
20260503020030 64 36 0.0 0.0 0.00 0.00 0.00 28 1012.4
20260503014529 66 36 0.0 0.0 0.00 0.00 0.00 25 1012.4
20260503013029 69 36 0.0 0.0 0.00 0.00 0.00 22 1012.3
20260503011528 71 36 0.0 0.0 0.00 0.00 0.00 19 1012.2
20260503010028 72 36 0.0 1.0 0.00 0.00 0.00 19 1012.3
20260503004525 74 32 0.0 1.0 0.00 0.00 0.00 19 1012.4
20260503003024 75 32 0.0 2.0 0.00 0.00 0.00 16 1012.5
20260503001522 76 30 0.0 1.0 0.00 0.00 0.00 18 1012.7
20260503000019 76 30 0.0 1.0 0.00 0.00 0.00 19 1012.9
20260502234518 76 30 0.0 1.0 0.00 0.00 0.00 20 1013.1
20260502233017 76 30 0.0 1.0 0.00 0.00 0.00 18 1013.2
20260502231520 76 30 0.0 1.0 0.00 0.00 0.00 18 1013.3
20260502230016 76 29 0.0 3.0 0.00 0.00 0.00 18 1013.4
20260502224521 76 30 0.0 3.0 0.00 0.00 0.00 21 1013.5
20260502223011 76 28 0.0 2.0 0.00 0.00 0.00 21 1013.8
20260502221509 75 27 0.0 3.0 0.00 0.00 0.00 21 1014.1
20260502220006 76 27 0.0 1.0 0.00 0.00 0.00 22 1014.4
20260502214503 75 26 0.0 1.0 0.00 0.00 0.00 22 1014.7
20260502213001 75 27 0.0 1.0 0.00 0.00 0.00 24 1015.0
20260502211558 75 26 0.0 2.0 0.00 0.00 0.00 24 1015.4
20260502210054 74 26 0.0 1.0 0.00 0.00 0.00 22 1015.8
20260502204554 74 24 0.0 3.0 0.00 0.00 0.00 21 1016.0
20260502203050 73 24 0.0 2.0 0.00 0.00 0.00 23 1016.3
20260502201547 72 26 0.0 3.0 0.00 0.00 0.00 22 1016.4
20260502200104 71 28 0.0 1.0 0.00 0.00 0.00 27 1016.5
20260502194600 70 236 1.0 3.0 0.00 0.00 0.00 20 1016.8
20260502193037 70 236 0.0 6.0 0.00 0.00 0.00 25 1017.0
20260502191533 69 308 0.0 5.0 0.00 0.00 0.00 25 1017.3
20260502190031 69 315 0.0 2.0 0.00 0.00 0.00 23 1017.6
20260502184528 68 296 1.0 4.0 0.00 0.01 0.00 25 1017.8
20260502183029 68 273 0.0 2.0 0.00 0.01 0.00 28 1018.2
20260502181527 67 30 0.0 3.0 0.00 0.01 0.00 29 1018.4
20260502163006 61 27 0.0 3.0 0.00 0.02 0.00 39 1019.3
20260502161606 59 27 0.0 3.0 0.00 0.02 0.00 39 1019.4
20260502160105 58 33 1.0 3.0 0.00 0.02 0.00 41 1019.5
20260502151542 49 18 0.0 1.0 0.00 0.03 0.00 68 1019.8
20260502123015 34 21 0.0 0.0 0.00 0.05 0.00 88 1019.6
20260502121513 34 21 0.0 0.0 0.00 0.05 0.00 88 1019.5
20260502114510 35 22 0.0 1.0 0.00 0.06 0.00 87 1019.3
20260502113008 35 22 0.0 0.0 0.00 0.06 0.00 87 1019.2
20260502111505 35 22 0.0 1.0 0.00 0.06 0.00 87 1019.1
20260502110004 36 22 0.0 0.0 0.00 0.06 0.00 88 1019.1
20260502104505 36 22 0.0 1.0 0.00 0.06 0.00 88 1019.1
20260502103004 36 22 0.0 0.0 0.00 0.06 0.00 88 1019.0
20260502101610 36 22 0.0 0.0 0.00 0.06 0.00 88 1018.9
20260502070034 42 22 0.0 2.0 0.00 0.09 0.00 83 1018.3
20260502064537 42 22 0.0 2.0 0.00 0.10 0.00 83 1018.1
20260502063039 42 22 0.0 0.0 0.00 0.10 0.00 82 1018.2
20260502061529 42 22 0.0 0.0 0.00 0.10 0.00 81 1018.1
20260502060027 43 22 0.0 0.0 0.00 0.10 0.00 80 1017.9
20260502054536 43 22 0.0 0.0 0.00 0.11 0.10 80 1017.9
20260502053026 44 22 0.0 0.0 0.00 0.11 0.10 79 1017.8
20260502051525 44 22 0.0 0.0 0.00 0.11 0.10 79 1017.8
20260502050025 44 22 0.0 0.0 0.00 0.11 0.10 77 1017.7
20260502044525 45 22 0.0 0.0 0.00 0.13 0.10 76 1017.7
20260502043028 45 22 0.0 0.0 0.00 0.13 0.10 73 1017.6
20260502041529 45 22 0.0 0.0 0.00 0.13 0.10 72 1017.6
20260502040023 46 22 0.0 0.0 0.00 0.13 0.10 71 1017.6
20260502034523 46 22 0.0 0.0 0.00 0.14 0.10 69 1017.4
20260502033028 47 22 0.0 0.0 0.00 0.14 0.10 67 1017.4
20260502031522 48 22 0.0 0.0 0.00 0.14 0.10 65 1017.3
20260502030022 49 22 0.0 0.0 0.00 0.14 0.10 62 1017.1
20260502024522 50 22 0.0 0.0 0.00 0.16 0.10 60 1016.9
20260502023021 52 22 0.0 0.0 0.00 0.16 0.10 57 1016.7
20260502021520 54 22 0.0 0.0 0.00 0.16 0.10 53 1016.5